Home   Weather   Brussels   Past weeks

Flag for Belgium Past Weather in Brussels, Belgium — Yesterday and Last 2 Weeks

Now
25 °F

Ice fog.


Feels Like: 17 °F
Forecast: 22 / 33 °F
Wind: 7 mph from Northeast

Location: Brussels National Airport

Current Time: Jan 18, 2017 at 11:06:13 am

Latest Report: Jan 18, 2017 at 10:20 am


Visibility: 2 mi

Pressure: 30.69 "Hg

Humidity: 93%

Dew Point: 23 °F

Location of BrusselsLocation

Past Weather in Brussels — Graph

°F

Brussels Temperature Yesterday

Maximum temperature yesterday: 32 °F (at 2:50 pm)
Minimum temperature yesterday: 25 °F (at 8:20 am)
Average temperature yesterday: 28 °F

High & Low Weather Summary for the Past Weeks

 TemperatureHumidityPressure
High48 °F (Jan 11, 1:20 pm)100% (Jan 4, 7:50 am)30.72 "Hg (Jan 4, 7:50 am)
Low23 °F (Jan 6, 8:50 am)60% (Jan 5, 3:50 pm)28.94 "Hg (Jan 12, 10:50 pm)
Average35 °F88%30.18 "Hg
* Reported Jan 3 9:20 am — Jan 18 9:50 am, Brussels, Weather by CustomWeather, © 2017

Note: Actual official high and low records may vary slightly from our data, if they occured in-between our weather recording intervals... More about our weather records

Advertising

Brussels Weather History for the Previous 24 Hours

Scroll right to see more
 ConditionsComfort  
Time TempWeatherWind HumidityBarometerVisibility
9:50 am
Wed, Jan 18
25 °FIce fog.6 mph93%30.69 "Hg1 mi
9:20 am25 °FIce fog.6 mph93%30.69 "Hg1 mi
8:50 am25 °FIce fog.6 mph93%30.66 "Hg1 mi
8:20 am25 °FIce fog.6 mph93%30.66 "Hg1 mi
7:50 am23 °FIce fog.6 mph93%30.66 "Hg1 mi
7:20 am25 °FIce fog.5 mph93%30.66 "Hg1 mi
6:50 am25 °FIce fog.6 mph93%30.66 "Hg1 mi
6:20 am25 °FIce fog.5 mph93%30.66 "Hg2 mi
5:50 am25 °FIce fog.6 mph93%30.66 "Hg2 mi
5:20 am25 °FIce fog.6 mph93%30.66 "Hg2 mi
4:50 am25 °FIce fog.5 mph93%30.66 "Hg2 mi
4:20 am25 °FIce fog.5 mph93%30.66 "Hg2 mi
3:50 am25 °FIce fog.5 mph93%30.66 "Hg1 mi
3:20 am25 °FIce fog.6 mph93%30.66 "Hg1 mi
2:50 am25 °FIce fog.6 mph93%30.66 "Hg1 mi
2:20 am25 °FIce fog.6 mph93%30.66 "Hg1 mi
1:50 am25 °FIce fog.1 mph93%30.66 "Hg1 mi
1:20 am25 °FIce fog.2 mph100%30.66 "Hg1 mi
12:50 am25 °FIce fog.1 mph93%30.66 "Hg2 mi
12:20 am25 °FIce fog.1 mph93%30.66 "Hg2 mi
11:50 pm
Tue, Jan 17
25 °FIce fog.1 mph93%30.66 "Hg2 mi
11:20 pm25 °FIce fog.1 mph100%30.66 "Hg3 mi
10:50 pm25 °FIce fog.2 mph93%30.66 "Hg3 mi
10:20 pm27 °FClear.2 mph93%30.66 "Hg4 mi
9:50 pm27 °FClear.2 mph93%30.66 "Hg4 mi
9:20 pm27 °FClear.1 mph93%30.66 "Hg4 mi
8:50 pm27 °FClear.1 mph93%30.66 "Hg5 mi
8:20 pm27 °FClear.2 mph93%30.66 "Hg5 mi
7:50 pm27 °FClear.2 mph93%30.66 "Hg5 mi
7:20 pm27 °FClear.2 mph93%30.66 "Hg5 mi
6:50 pm28 °FClear.5 mph86%30.66 "Hg10 mi
6:20 pm28 °FClear.3 mph86%30.63 "Hg10 mi
5:50 pm28 °FClear.5 mph86%30.63 "Hg10 mi
5:20 pm28 °FClear.5 mph86%30.63 "Hg10 mi
4:50 pm30 °FSunny.2 mph80%30.63 "Hg10 mi
4:20 pm32 °FSunny.5 mph69%30.63 "Hg10 mi
3:50 pm32 °FSunny.3 mph69%30.63 "Hg10 mi
3:20 pm32 °FSunny.5 mph69%30.63 "Hg10 mi
2:50 pm32 °FSunny.5 mph69%30.63 "Hg10 mi
2:20 pm30 °FPassing clouds.3 mph75%30.63 "HgN/A
1:50 pm30 °FPassing clouds.3 mph75%30.63 "HgN/A
1:20 pm30 °FClear.5 mph75%30.63 "Hg6 mi
12:50 pm28 °FClear.5 mph80%30.63 "Hg6 mi
12:20 pm28 °FPassing clouds.5 mph80%30.63 "Hg4 mi
11:50 am28 °FPassing clouds.5 mph74%30.63 "Hg4 mi
11:20 am27 °FPartly sunny.6 mph80%30.66 "Hg4 mi
Weather by CustomWeather, © 2017

See weather overviewHow to use our weather pages